This is the latest recevied weather packets stored in our database for station/object W5ADC. If no packets are shown the sender has not sent any weather packets the latest 10 day(s).
| Time | Temp. | Humidity | Pressure | Rain* | Wind** | Luminosity | Snow |
|---|---|---|---|---|---|---|---|
| 1788622577 | 32.78° C | 60% | 1011.3 hPa | 0 mm | - | 486 W/m² | - |
| 1788622273 | 31.67° C | 62% | 1011.3 hPa | 0 mm | - | 474 W/m² | - |
| 1788621968 | 31.67° C | 63% | 1011.4 hPa | 0 mm | - | 459 W/m² | - |
| 1788621662 | 31.67° C | 63% | 1011.4 hPa | 0 mm | - | 444 W/m² | - |
| 1788621357 | 31.67° C | 64% | 1011.3 hPa | 0 mm | - | 429 W/m² | - |
| 1788621052 | 31.11° C | 65% | 1011.5 hPa | 0 mm | - | 414 W/m² | - |
| 1788620748 | 31.11° C | 66% | 1011.4 hPa | 0 mm | - | 401 W/m² | - |
| 1788620445 | 30.56° C | 67% | 1011.4 hPa | 0 mm | - | 384 W/m² | - |
| 1788620139 | 30.56° C | 68% | 1011.1 hPa | 0 mm | - | 369 W/m² | - |
| 1788619838 | 30.56° C | 68% | 1011.4 hPa | 0 mm | - | 148 W/m² | - |
| 1788619533 | 30.56° C | 68% | 1011.4 hPa | 0 mm | - | 340 W/m² | - |
| 1788619232 | 30° C | 68% | 1011.4 hPa | 0 mm | - | 324 W/m² | - |
| 1788618932 | 30.56° C | 69% | 1011.1 hPa | 0 mm | - | 197 W/m² | - |
| 1788618627 | 30° C | 69% | 1011.3 hPa | 0 mm | - | 286 W/m² | - |
| 1788618326 | 30° C | 70% | 1011.1 hPa | 0 mm | - | 278 W/m² | - |
| 1788618021 | 30° C | 71% | 1011.3 hPa | 0 mm | - | 262 W/m² | - |
| 1788617715 | 30° C | 70% | 1011 hPa | 0 mm | - | 247 W/m² | - |
| 1788617412 | 30° C | 71% | 1011.4 hPa | 0 mm | - | 233 W/m² | - |
| 1788617107 | 29.44° C | 72% | 1011.1 hPa | 0 mm | - | 218 W/m² | - |
| 1788616806 | 29.44° C | 72% | 1011.1 hPa | 0 mm | - | 149 W/m² | - |
| 1788616501 | 29.44° C | 73% | 1011.3 hPa | 0 mm | - | 190 W/m² | - |
| 1788616196 | 29.44° C | 72% | 1011.3 hPa | 0 mm | - | 172 W/m² | - |
| 1788615895 | 28.89° C | 74% | 1011.1 hPa | 0 mm | - | 164 W/m² | - |
| 1788615595 | 28.33° C | 75% | 1011 hPa | 0 mm | - | 149 W/m² | - |
| 1788615290 | 28.33° C | 75% | 1011.1 hPa | 0 mm | - | 138 W/m² | - |
* Rain latest hour (hover to see other rain measurements)
** Current wind speed in m/s (hover to see current wind gust speed)